Météo Nord-Pas-de-Calais   La météo au plus près de chez vous

Station météorologique

Observations météo à Brive-Souillac (19147)

19147001 295 m Dernier relevé à 07:24
12.4°C
Humidité 97 % Vent 2.2 km/h 1021.5 hPa

Journée consultée

Lundi 31 Août 2026

Synthèse de la journée

Périodes de référence en UTC

Température maximale

28.5°C

à 17:00

06h 06h

Température minimale

12.4°C

à 07:18

18h 18h

Rafale maximale

7 km/h

à 02:24

00h 00h

Précipitations

0 mm

Cumul quotidien

06h 06h

Graphiques de la journée

Heure locale Réduire

Données détaillées

Relevés météo

Pas de 6 minutes Afficher les relevés infra-horaires
Relevés météo détaillés à Brive-Souillac pour le Lundi 31 Août 2026
Heure Température °C Point de rosée °C Humidité % Vent moyen (raf.), km/h Précipitations mm Visibilité m Pression hPa Nébulosité Octas
07:24 12.4 °C 12.2 °C 99 % 2 km/h (3 km/h) 0 mm0 mm 59390 m 1021.8 hPa
07:18 12.4 °C 12.2 °C 99 % 2 km/h (3 km/h) 0 mm0 mm 59390 m 1021.8 hPa
07:12 12.5 °C 12.2 °C 98 % 0 km/h (3 km/h) 0 mm0 mm 60000 m 1021.7 hPa
07:06 12.6 °C 12.4 °C 99 % 0 km/h (3 km/h) 0 mm0 mm 60000 m 1021.7 hPa
07:00 12.7 °C 12.5 °C 99 % 2 km/h (4 km/h) 0 mm0 mm 56840 m 1021.7 hPa
06:54 12.8 °C 12.8 °C 100 % 3 km/h (4 km/h) 0 mm0 mm 57850 m 1021.5 hPa
06:48 12.8 °C 12.5 °C 98 % 2 km/h (3 km/h) 0 mm0 mm 59690 m 1021.5 hPa
06:42 13 °C 12.7 °C 98 % 2 km/h (3 km/h) 0 mm0 mm 60000 m 1021.5 hPa
06:36 13.1 °C 13.1 °C 100 % 2 km/h (5 km/h) 0 mm0 mm 58580 m 1021.5 hPa
06:30 13.1 °C 12.9 °C 99 % 2 km/h (5 km/h) 0 mm0 mm 58580 m 1021.5 hPa
06:24 13.2 °C 12.7 °C 97 % 2 km/h (4 km/h) 0 mm0 mm 60000 m 1021.5 hPa
06:18 13.4 °C 13.1 °C 98 % 2 km/h (4 km/h) 0 mm0 mm 60000 m 1021.5 hPa
06:12 13.5 °C 13.3 °C 99 % 2 km/h (4 km/h) 0 mm0 mm 60000 m 1021.5 hPa
06:06 13.5 °C 13 °C 97 % 3 km/h (4 km/h) 0 mm0 mm 60000 m 1021.4 hPa
06:00 13.6 °C 13.3 °C 98 % 2 km/h (4 km/h) 0 mm0 mm 60000 m 1021.4 hPa 6 Octas
05:54 13.6 °C 13.4 °C 99 % 2 km/h (3 km/h) 0 mm0 mm 60000 m 1021.4 hPa
05:48 13.5 °C 13.3 °C 99 % 2 km/h (3 km/h) 0 mm0 mm 60000 m 1021.5 hPa
05:42 13.5 °C 13.5 °C 100 % 2 km/h (3 km/h) 0 mm0 mm 60000 m 1021.5 hPa
05:36 13.5 °C 13.3 °C 99 % 2 km/h (4 km/h) 0 mm0 mm 57430 m 1021.5 hPa
05:30 13.5 °C 13.2 °C 98 % 3 km/h (5 km/h) 0 mm0 mm 56840 m 1021.5 hPa
05:24 13.6 °C 13.3 °C 98 % 3 km/h (5 km/h) 0 mm0 mm 60000 m 1021.6 hPa
05:18 13.6 °C 13.3 °C 98 % 3 km/h (3 km/h) 0 mm0 mm 60000 m 1021.5 hPa
05:12 13.7 °C 13.2 °C 97 % 2 km/h (3 km/h) 0 mm0 mm 60000 m 1021.5 hPa
05:06 13.9 °C 13.3 °C 96 % 0 km/h (3 km/h) 0 mm0 mm 60000 m 1021.5 hPa
05:00 14.2 °C 13.9 °C 98 % 2 km/h (4 km/h) 0 mm0 mm 60000 m 1021.5 hPa
04:54 14.3 °C 14.1 °C 99 % 3 km/h (5 km/h) 0 mm0 mm 60000 m 1021.4 hPa
04:48 14.4 °C 14.1 °C 98 % 3 km/h (5 km/h) 0 mm0 mm 60000 m 1021.3 hPa
04:42 14.6 °C 14.1 °C 97 % 2 km/h (3 km/h) 0 mm0 mm 60000 m 1021.3 hPa
04:36 14.9 °C 14.1 °C 95 % 2 km/h (3 km/h) 0 mm0 mm 60000 m 1021.4 hPa
04:30 15 °C 14 °C 94 % 0 km/h (3 km/h) 0 mm0 mm 60000 m 1021.3 hPa
04:24 15.3 °C 14.3 °C 94 % 0 km/h (3 km/h) 0 mm0 mm 60000 m 1021.2 hPa
04:18 15.5 °C 14.7 °C 95 % 0 km/h (4 km/h) 0 mm0 mm 60000 m 1021.2 hPa
04:12 15.6 °C 15 °C 96 % 2 km/h (5 km/h) 0 mm0 mm 60000 m 1021.2 hPa
04:06 15.5 °C 14.7 °C 95 % 2 km/h (5 km/h) 0 mm0 mm 60000 m 1021.2 hPa
04:00 15.6 °C 14.8 °C 95 % 3 km/h (4 km/h) 0 mm0 mm 60000 m 1021.2 hPa 7 Octas
03:54 15.5 °C 14.7 °C 95 % 2 km/h (5 km/h) 0 mm0 mm 60000 m 1021.2 hPa
03:48 15.4 °C 14.8 °C 96 % 3 km/h (5 km/h) 0 mm0 mm 60000 m 1021.1 hPa
03:42 15.4 °C 14.8 °C 96 % 3 km/h (4 km/h) 0 mm0 mm 60000 m 1021.1 hPa
03:36 15.4 °C 14.8 °C 96 % 2 km/h (4 km/h) 0 mm0 mm 60000 m 1021.1 hPa
03:30 15.4 °C 14.6 °C 95 % 0 km/h (3 km/h) 0 mm0 mm 60000 m 1021.1 hPa
03:24 15.4 °C 14.8 °C 96 % 0 km/h (3 km/h) 0 mm0 mm 60000 m 1021.1 hPa
03:18 15.6 °C 14.6 °C 94 % 0 km/h (3 km/h) 0 mm0 mm 60000 m 1021 hPa
03:12 15.7 °C 14.7 °C 94 % 0 km/h (3 km/h) 0 mm0 mm 60000 m 1020.9 hPa
03:06 15.8 °C 14.8 °C 94 % 0 km/h (3 km/h) 0 mm0 mm 60000 m 1020.9 hPa
03:00 15.8 °C 14.7 °C 93 % 0 km/h (2 km/h) 0 mm0 mm 60000 m 1021 hPa
02:54 15.9 °C 14.9 °C 94 % 0 km/h (3 km/h) 0 mm0 mm 60000 m 1020.9 hPa
02:48 16 °C 14.9 °C 93 % 0 km/h (3 km/h) 0 mm0 mm 60000 m 1021 hPa
02:42 16.1 °C 15 °C 93 % 2 km/h (5 km/h) 0 mm0 mm 60000 m 1020.9 hPa
02:36 16.2 °C 15.1 °C 93 % 3 km/h (6 km/h) 0 mm0 mm 60000 m 1021 hPa
02:30 16.1 °C 15 °C 93 % 4 km/h (7 km/h) 0 mm0 mm 60000 m 1021 hPa
02:24 16 °C 15 °C 94 % 4 km/h (7 km/h) 0 mm0 mm 60000 m 1021 hPa
02:18 15.9 °C 14.9 °C 94 % 3 km/h (5 km/h) 0 mm0 mm 60000 m 1021 hPa
02:12 15.8 °C 14.7 °C 93 % 3 km/h (4 km/h) 0 mm0 mm 60000 m 1021 hPa
02:06 15.9 °C 14.8 °C 93 % 2 km/h (6 km/h) 0 mm0 mm 60000 m 1021 hPa
02:00 16 °C 14.9 °C 93 % 3 km/h (6 km/h) 0 mm0 mm 60000 m 1020.9 hPa
01:54 16 °C 14.9 °C 93 % 2 km/h (5 km/h) 0 mm0 mm 60000 m 1020.9 hPa
01:48 16 °C 14.7 °C 92 % 0 km/h (4 km/h) 0 mm0 mm 60000 m 1020.9 hPa
01:42 16.1 °C 14.8 °C 92 % 2 km/h (5 km/h) 0 mm0 mm 60000 m 1020.8 hPa
01:36 16.2 °C 14.9 °C 92 % 2 km/h (4 km/h) 0 mm0 mm 60000 m 1020.8 hPa
01:30 16.2 °C 14.9 °C 92 % 2 km/h (4 km/h) 0 mm0 mm 60000 m 1020.7 hPa
01:24 16.3 °C 15 °C 92 % 2 km/h (3 km/h) 0 mm0 mm 60000 m 1020.6 hPa
01:18 16.5 °C 15 °C 91 % 2 km/h (3 km/h) 0 mm0 mm 60000 m 1020.4 hPa
01:12 16.8 °C 15.1 °C 90 % 2 km/h (4 km/h) 0 mm0 mm 60000 m 1020.4 hPa
01:06 16.9 °C 15.1 °C 89 % 2 km/h (4 km/h) 0 mm0 mm 60000 m 1020.3 hPa
01:00 17.1 °C 15.3 °C 89 % 2 km/h (4 km/h) 0 mm0 mm 60000 m 1020.1 hPa
00:54 17.3 °C 15.3 °C 88 % 2 km/h (5 km/h) 0 mm0 mm 60000 m 1020.1 hPa
00:48 17.4 °C 15.4 °C 88 % 3 km/h (5 km/h) 0 mm0 mm 60000 m 1020.1 hPa
00:42 17.6 °C 15.4 °C 87 % 5 km/h (7 km/h) 0 mm0 mm 60000 m 1020.1 hPa
00:36 17.7 °C 15.3 °C 86 % 5 km/h (7 km/h) 0 mm0 mm 60000 m 1020 hPa
00:30 18 °C 15.4 °C 85 % 4 km/h (7 km/h) 0 mm0 mm 60000 m 1019.8 hPa
00:24 18.1 °C 15.4 °C 84 % 3 km/h (5 km/h) 0 mm0 mm 60000 m 1019.7 hPa
00:18 18.4 °C 15.5 °C 83 % 4 km/h (6 km/h) 0 mm0 mm 60000 m 1019.6 hPa
00:12 18.5 °C 15.6 °C 83 % 3 km/h (6 km/h) 0 mm0 mm 60000 m 1019.5 hPa
00:06 18.6 °C 15.5 °C 82 % 4 km/h (6 km/h) 0 mm0 mm 60000 m 1019.6 hPa
00:00 18.6 °C 15.5 °C 82 % 5 km/h (9 km/h) 0 mm0 mm 60000 m 1019.5 hPa 7 Octas

Données via Météo-France

Relevés météo à Brive-Souillac

Cette page rassemble les observations de la station de Brive-Souillac : température, humidité, vent, précipitations et pression atmosphérique. Les graphiques facilitent le suivi de la journée, tandis que le tableau donne accès aux mesures horaires et infra-horaires disponibles.

Pour replacer ces mesures dans leur contexte, consultez la climatologie de Brive-Souillac ainsi que ses normales et records. Retrouvez aussi la carte des observations météo en temps réel.